Regional Weather Roundup
Issued by NWS

Home | Current Version | Previous Version | Text Only | Print | Product List | Glossary On
Versions: 1 2 3 4 5 6 7 8 9 10 11 12 13 14 15 16 17 18 19 20 21 22 23 24 25 26 27 28 29 30 31 32 33 34 35 36 37 38 39 40 41 42 43 44 45 46 47 48 49 50
000
ASUS43 KBIS 181902
RWRND

NORTH DAKOTA REGIONAL WEATHER ROUNDUP
NATIONAL WEATHER SERVICE BISMARCK ND
200 PM CDT FRI AUG 18 2017

NOTE: "FAIR" INDICATES FEW OR NO CLOUDS BELOW 12,000 FEET WITH NO
SIGNIFICANT WEATHER AND/OR OBSTRUCTIONS TO VISIBILITY.


NDZ001>003-009>011-017-182000-
NORTHWEST NORTH DAKOTA

CITY           SKY/WX    TMP DP  RH WIND       PRES   REMARKS
WILLISTON      SUNNY     80  53  39 CALM      29.95F
MINOT          SUNNY     81  47  30 NW14G21   29.91F
MINOT AFB      SUNNY     81  44  26 NW16G23   29.90F
$$

NDZ018>021-031>035-040>046-182000-
SOUTHWEST NORTH DAKOTA

CITY           SKY/WX    TMP DP  RH WIND       PRES   REMARKS
BISMARCK       SUNNY     79  56  45 W6        29.96F
DICKINSON      MOSUNNY   80  48  32 N9        29.97F
GARRISON         N/A     79  49  34 NW14G28   29.94F
HETTINGER ARPT SUNNY     80  47  31 N7        30.01F
$$

NDZ004>008-012>016-024-026-027-054-182000-
NORTHEAST NORTH DAKOTA

CITY           SKY/WX    TMP DP  RH WIND       PRES   REMARKS
GRAND FORKS    PTSUNNY   80  59  48 NW9       29.84F
GRND FRKS AFB  MOSUNNY   79  56  45 N8        29.86F
DEVILS LAKE    SUNNY     76  57  51 NW10      29.90S
$$

NDZ022-023-025-028>030-036>039-047>053-182000-
SOUTHEAST NORTH DAKOTA

CITY           SKY/WX    TMP DP  RH WIND       PRES   REMARKS
FARGO          CLOUDY    76  63  64 W13       29.86F
JAMESTOWN      PTSUNNY   71  59  65 N3        29.92S
$$





USA.gov is the U.S. government's official web portal to all federal, state and local government web resources and services.